Regional Weather Roundup
Issued by NWS

Home | Current Version | Previous Version | Text Only | Print | Product List | Glossary On
Versions: 1 2 3 4 5 6 7 8 9 10 11 12 13 14 15 16 17 18 19 20 21 22 23 24 25 26 27 28 29 30 31 32 33 34 35 36 37 38 39 40 41 42 43 44 45 46 47 48 49 50
000
ASUS45 KPSR 231210
RWRAZ

ARIZONA HOURLY REGIONAL WEATHER ROUNDUP
NATIONAL WEATHER SERVICE PHOENIX AZ
500 AM MST SAT MAY 23 2015

NOTE: FAIR INDICATES FEW OR NO CLOUDS BELOW 12,000 FEET WITH NO
SIGNIFICANT WEATHER AND/OR OBSTRUCTIONS TO VISIBILITY.

AZZ001>003-036-231300-
NORTHWEST ARIZONA

CITY           SKY/WX    TMP DP  RH WIND       PRES   REMARKS
BULLHEAD CITY  CLEAR     64  45  48 S6        29.91F
KINGMAN        CLEAR     45  38  76 SE6       29.97S
6HR MIN TEMP:  45; 6HR MAX TEMP:  50;

$$

AZZ004>008-015-016-018-231300-
NORTH CENTRAL ARIZONA

CITY           SKY/WX    TMP DP  RH WIND       PRES   REMARKS
GRAND CANYON   CLOUDY    36  35  96 SW3       30.04S
6HR MIN TEMP:  30; 6HR MAX TEMP:  36;

WILLIAMS       CLOUDY    36  34  93 E3        30.11S
PRESCOTT       MOCLDY    47  34  60 W6        30.02S
6HR MIN TEMP:  46; 6HR MAX TEMP:  50;

FLAGSTAFF      CLOUDY    38  33  82 W5        30.05S WCI  34
6HR MIN TEMP:  32; 6HR MAX TEMP:  39;

PAYSON         PTCLDY    41  32  70 CALM      30.05S
PAGE           CLOUDY    50  40  68 SE6       29.96F
6HR MIN TEMP:  49; 6HR MAX TEMP:  53; 6HR PCP: TRACE;

$$

AZZ009>014-017-231300-
NORTHEAST ARIZONA

CITY           SKY/WX    TMP DP  RH WIND       PRES   REMARKS
WINSLOW        PTCLDY    40  29  64 S6        30.03S
6HR MIN TEMP:  37; 6HR MAX TEMP:  47;

SAINT JOHNS    PTCLDY    40  31  70 S5        30.04S
6HR MIN TEMP:  40; 6HR MAX TEMP:  51;

WINDOW ROCK    PTCLDY    32  26  78 S3        30.06S
6HR MIN TEMP:  32; 6HR MAX TEMP:  47;

SHOW LOW       CLEAR     34  30  86 S6        30.07S WCI  29
$$

AZZ023-231300-
GREATER PHOENIX AREA

CITY           SKY/WX    TMP DP  RH WIND       PRES   REMARKS
PHOENIX        PTCLDY    65  39  38 CALM      29.94R
6HR MIN TEMP:  65; 6HR MAX TEMP:  71;

BUCKEYE        CLEAR     57  41  54 W3        29.97R
LUKE AFB       CLEAR     61  42  49 SW13      29.94R
6HR MIN TEMP:  61; 6HR MAX TEMP:  69;

DEER VALLEY    CLEAR     60  39  45 SW3       29.94S
6HR MIN TEMP:  59; 6HR MAX TEMP:  67;

SCOTTSDALE     CLEAR     62  40  44 CALM      29.96S
6HR MIN TEMP:  61; 6HR MAX TEMP:  69;

MESA-GATEWAY   PTCLDY    55  43  62 E6        29.98R
$$

AZZ027-028-231300-
SOUTHWEST MARICOPA COUNTY AND PINAL COUNTY

CITY           SKY/WX    TMP DP  RH WIND       PRES   REMARKS
CASA GRANDE    CLEAR     55  37  50 CALM      29.95S
6HR MIN TEMP:  55; 6HR MAX TEMP:  64;

GILA BEND      FAIR      59  43  55 SW3       29.96R
6HR MIN TEMP:  59; 6HR MAX TEMP:  67;

$$

AZZ503-504-507>509-231300-
SOUTHEAST ARIZONA

CITY           SKY/WX    TMP DP  RH WIND       PRES   REMARKS
TUCSON         CLEAR     54  34  46 SE3       30.02R
6HR MIN TEMP:  54; 6HR MAX TEMP:  65;

DAVIS-MONTHAN  CLEAR     53  33  47 S2        30.00R
6HR MIN TEMP:  52; 6HR MAX TEMP:  64;

NOGALES        CLEAR     44  30  57 E5        30.03R
6HR MIN TEMP:  43; 6HR MAX TEMP:  58;

SIERRA VISTA   CLEAR     47  34  61 SE5       30.05R
6HR MIN TEMP:  46; 6HR MAX TEMP:  57;

DOUGLAS        CLEAR     46  30  53 E3        30.03S
6HR MIN TEMP:  46; 6HR MAX TEMP:  59;

SAFFORD        CLEAR     55  36  48 NW8       29.98R
6HR MIN TEMP:  55; 6HR MAX TEMP:  67;

$$

AZZ020-021-025-026-031-231300-
SOUTHWEST ARIZONA

CITY           SKY/WX    TMP DP  RH WIND       PRES   REMARKS
YUMA           CLEAR     60  45  57 W6        29.95S
6HR MIN TEMP:  60; 6HR MAX TEMP:  66;

$$

CAZ031-033-041-043-047-048-061-231300-
SOUTHERN CALIFORNIA

CITY           SKY/WX    TMP DP  RH WIND       PRES   REMARKS
DOWNTOWN L.A.  CLEAR     58  51  78 CALM      30.05S
6HR MIN TEMP:  58; 6HR MAX TEMP:  63;

L.A. AIRPORT   PTCLDY    57  53  86 CALM      30.06S
6HR MIN TEMP:  57; 6HR MAX TEMP:  60;

SAN DIEGO      MOCLDY    61  53  75 W3        30.08F
6HR MIN TEMP:  61; 6HR MAX TEMP:  62; 6HR PCP:  0.02;

BURBANK        CLEAR     57  50  77 CALM      30.05R
6HR MIN TEMP:  57; 6HR MAX TEMP:  61;

ONTARIO        MOCLDY    55  53  93 CALM      30.06S
6HR MIN TEMP:  55; 6HR MAX TEMP:  57; 6HR PCP:  0.01;

RIVERSIDE      CLOUDY    58  52  80 CALM      30.06S
6HR MIN TEMP:  58; 6HR MAX TEMP:  59;

PALM SPRINGS   PTCLDY    61  48  62 NW3       29.96S
6HR MIN TEMP:  60; 6HR MAX TEMP:  68;

EL CENTRO NAS  CLEAR     63  44  50 SW15      29.97S
6HR MIN TEMP:  63; 6HR MAX TEMP:  66;

IMPERIAL       CLEAR     61  45  55 W9        29.95S
6HR MIN TEMP:  61; 6HR MAX TEMP:  65;

BLYTHE         CLEAR     58  46  64 N5        29.92S
6HR MIN TEMP:  58; 6HR MAX TEMP:  66;

NEEDLES        CLEAR     62  42  47 W6        29.91S
6HR MIN TEMP:  62; 6HR MAX TEMP:  72; 6HR PCP: TRACE;

$$

NVZ020-UTZ003-231300-
SOUTHERN NEVADA-UTAH

CITY           SKY/WX    TMP DP  RH WIND       PRES   REMARKS
LAS VEGAS      PTCLDY    59  42  53 S10       29.87S
6HR MIN TEMP:  59; 6HR MAX TEMP:  64;

SALT LAKE CITY CLOUDY    50  46  86 SE8       29.92F
6HR MIN TEMP:  49; 6HR MAX TEMP:  56; 6HR PCP:  0.19;

$$

NMZ009-TXZ055-231300-
NEW MEXICO-WEST TEXAS

CITY           SKY/WX    TMP DP  RH WIND       PRES   REMARKS
ALBUQUERQUE    MOCLDY    55  30  38 CALM      30.02R
6HR MIN TEMP:  51; 6HR MAX TEMP:  62;

EL PASO        CLOUDY    68  25  19 NW6       29.99R
6HR MIN TEMP:  68; 6HR MAX TEMP:  78;

$$


........................KEY........................
SKY/WX - SKY CONDITION/WEATHER
TMP    - TEMPERATURE IN FAHRENHEIT
DP     - DEW POINT IN FAHRENHEIT
RH     - RELATIVE HUMIDITY IN PERCENT
WIND   - DIRECTION AND SPEED IN MILES PER HOUR (MPH)
VRB    - VARIABLE WIND DIRECTION
PRES   - MEAN SEA LEVEL PRESSURE IN INCHES OF MERCURY
         F - FALLING PRESSURE   R - RISING PRESSURE
         S - STEADY PRESSURE
VSB    - VISIBILITY IN MILES
HX     - HEAT INDEX IN FAHRENHEIT
WCI    - WIND CHILL INDEX IN FAHRENHEIT
TC     - TEMPERATURE IN CELSIUS WHICH IS ALSO KNOWN AS
         TEMPERATURE IN CENTIGRADE
AFB    - AIR FORCE BASE
         LUKE AFB IS LUKE AIR FORCE BASE
         DAVIS-MONTHAN IS DAVIS-MONTHAN AIR FORCE BASE
NAS    - NAVAL AIR STATION
         EL CENTRO NAS IS EL CENTRO NAVAL AIR STATION
N/A    - NOT AVAILABLE



USA.gov is the U.S. government's official web portal to all federal, state and local government web resources and services.